{"data":{"norad_id":81838,"intl_designator":"","name":"UNKNOWN","alt_names":[],"object_type":"UNKNOWN","status":"UNKNOWN","operator":null,"country":null,"launch_date":null,"launch_site_code":null,"launch_vehicle":null,"mission":null,"orbit_class":"UNKNOWN","rcs_meters":null,"size_class":null,"mass_kg":null,"dimensions":null,"purposes":[],"wikipedia_slug":null,"has_3d_model":false,"image_url":null,"decayed_at":null,"tle_current":{"epoch":"2026-09-07T02:41:44.071296Z","epoch_age_seconds":1171235,"freshness":"AGED","line1":"1 81838U          26250.11231564  .00002186  00000+0  47061-3 0  9993","line2":"2 81838  67.7587 282.7768 0034300 112.9294 280.9681 14.59912764672476","mean_motion":14.59912764,"eccentricity":0.00343,"inclination_deg":67.7587,"raan_deg":282.7768,"arg_perigee_deg":112.9294,"mean_anomaly_deg":280.9681,"bstar":0.00047061,"rev_number":67247,"period_min":98.636030556686,"perigee_km":669.20011687734,"apogee_km":717.71124266056,"semimajor_km":7071.5926797689,"source":"CELESTRAK","updated_at":"2026-09-20T09:00:32.396248Z"}}}